DELTA 1 DEB, 10630

Orbit data source: Space-Track

DELTA 1 DEB, 10630 is space debris in LEO originally from a launch on Thu, 14 Jul 1977 UTC launched from the Air Force Eastern Test Range (AFETR). Debris objects in space refer to the collection of defunct objects orbiting the Earth. Examples of debris include non-operational satellites, rocket bodies, and fragments generated from explosions, collisions, or faulty payload assembly.

Loading next visibility...
Identifier
10630, 1977-065EZ
Orbit
LEO
Country
Flag of USUS
Related business
Manufacturer
Unknown
Mission
Spacecraft
Bus & Motor
Unknown
Mass
Unknown
Launch date (UTC)
1977-07-14 (48 years ago)
Launch vehicle
Unknown
Launch site
Air Force Eastern Test Range (AFETR)
Object type
Payload
Rocket body
Debris
Shape & HBR
Unknown shape, 0.1 m
Radar Cross Section
Small (<0.1 m²)

Expand to show TLE details & history
Last TLE update: 23 hours ago

TLE from 23 hours ago
0 DELTA 1 DEB
1 10630U 77065EZ  25349.21386180  .00001961  00000-0  22436-2 0  9993
2 10630  29.2299 278.4246 0778595  92.8362 276.1464 12.80542644483864
Epoch: 2025-12-15T05:07Z
TLE epoch observation values (Epoch: 2025-12-15T05:07:57.659Z)
Latitude
-0.00003°
Longitude
117.31866°
Altitude
1,320.099 km
Speed
7.207 km/s
True Right ascension
18h 33m 41s
True Declination
0° 00' 00"
Sunlit
Object was in daylight at epoch
Visualization orbit readout
Latitude
Unknown
Longitude
Unknown
Altitude
Unknown
Speed
Unknown
Apparent Right ascension
Unknown
Apparent Declination
Unknown
Sunlit
N/A
Visualization observer readout
Local Sidereal Time
02:53:17
Azimuth
Unknown
Elevation
Unknown
Doppler factor
Unknown
Orbital elements
Apogee altitude
1,944.158 km
Perigee altitude
741.831 km
Semi-major axis
7,721.131 km
Eccentricity
0.07786
Inclination
29.2299°
RAAN
278.4246°
Arg. of periapsis
92.8362°
True anomaly
267.21858°
Mean anomaly
276.1464°
Eccentric anomaly
271.68731°
Mean motion
3.19906 °/min
Orbital period
112.53 mins
BSTAR
0.0022436
Loading maneuver chart data...
Computing Atmospheric mass density...

Documentation

Showing up to 5 results
|